PD0PJH-13 Weather Reports


time (UTC)temp
C
wind
direction
speed
KPH
gust
KPH
rain 1hr
cm
rain 24hr
cm
rain mn
cm
humidity
%
barometer
mb
20260504201510 13 173 4.8 12.9 0.05 0.69 0.69 89 1010.7
20260504200016 12 201 9.7 17.7 0.18 0.69 0.69 89 1010.5
20260504194520 12 201 9.7 17.7 0.25 0.69 0.69 90 1010.4
20260504193026 12 224 9.7 19.3 0.25 0.69 0.69 91 1010.5
20260504191529 12 243 11.3 24.1 0.20 0.64 0.64 90 1010.6
20260504190016 13 208 11.3 19.3 0.08 0.51 0.51 89 1010.7
20260504184518 13 202 8.0 22.5 0.00 0.43 0.43 85 1010.9
20260504183022 14 182 4.8 12.9 0.00 0.43 0.43 81 1010.8
20260504181528 15 176 8.0 20.9 0.00 0.43 0.43 78 1010.2
20260504180029 15 132 9.7 19.3 0.00 0.43 0.43 78 1010.0
20260504174520 15 143 11.3 20.9 0.00 0.43 0.43 78 1010.2
20260504173023 15 107 11.3 22.5 0.00 0.43 0.43 78 1010.2
20260504171526 15 76 11.3 22.5 0.00 0.43 0.43 79 1010.1
20260504081526 11 115 3.2 11.3 0.00 0.69 0.43 92 1013.0
20260504050004 10 110 3.2 9.7 0.08 0.66 0.38 93 1012.8
20260504044506 10 91 3.2 6.4 0.10 0.66 0.38 93 1012.8
20260504043021 10 91 1.6 6.4 0.13 0.64 0.36 93 1012.8
20260504041515 10 134 1.6 4.8 0.15 0.61 0.33 93 1012.8
20260504040025 10 134 1.6 4.8 0.15 0.58 0.30 92 1012.9
20260504034508 10 134 1.6 6.4 0.18 0.56 0.28 92 1013.1
20260504033014 10 134 3.2 6.4 0.15 0.51 0.23 91 1013.2
20260504031518 10 134 1.6 4.8 0.15 0.46 0.18 90 1013.4
20260504030019 10 134 1.6 4.8 0.15 0.43 0.15 89 1013.4
20260504024525 11 214 1.6 6.4 0.10 0.38 0.10 86 1013.5
20260504023008 11 207 1.6 8.0 0.08 0.36 0.08 84 1013.4
20260504021514 11 212 6.4 19.3 0.03 0.30 0.03 79 1013.4
20260504020018 12 198 9.7 17.7 0.00 0.28 0.00 73 1013.4
20260504014519 13 222 3.2 8.0 0.00 0.28 0.00 68 1013.3
20260504013024 13 197 1.6 8.0 0.00 0.28 0.00 66 1013.2
20260504011506 13 195 4.8 24.1 0.00 0.28 0.00 63 1013.2
20260504010012 13 172 12.9 20.9 0.00 0.28 0.00 62 1013.4
20260504004520 13 169 11.3 20.9 0.00 0.28 0.00 63 1013.4
20260504003023 13 128 8.0 16.1 0.00 0.28 0.00 64 1013.4
20260504001525 13 160 4.8 12.9 0.00 0.28 0.00 66 1013.5
20260504000012 13 213 6.4 16.1 0.00 0.28 0.00 68 1013.5
20260503234520 11 162 0.0 6.4 0.00 0.28 0.00 81 1013.8
20260503233021 11 91 0.0 3.2 0.00 0.28 0.00 87 1013.8
20260503231524 11 63 1.6 4.8 0.00 0.28 0.00 89 1013.8
20260503230028 11 122 1.6 4.8 0.00 0.28 0.00 87 1013.9
20260503224513 11 61 0.0 4.8 0.00 0.28 0.00 86 1013.9
20260503223003 11 69 3.2 6.4 0.00 0.28 0.00 86 1014.1
20260503221506 11 82 3.2 6.4 0.00 0.28 0.00 85 1014.0
20260503220003 12 4 0.0 0.0 0.00 0.28 0.00 84 1013.9
20260503214513 12 4 0.0 0.0 0.00 0.28 0.28 81 1014.0
20260503213005 13 4 0.0 1.6 0.00 0.28 0.28 79 1014.0
20260503211504 13 4 0.0 4.8 0.00 0.28 0.28 77 1014.0
20260503210003 14 6 0.0 8.0 0.00 0.28 0.28 74 1014.0
20260503204508 15 352 1.6 6.4 0.00 0.28 0.28 70 1013.9
20260503203003 15 287 4.8 9.7 0.00 0.28 0.28 71 1013.8